Flag for Burundi Weather past 2 weeks in Gitega, Burundi

Now
82 °F

Partly sunny.


Feels Like: 83 °F
Forecast: 58 / 74 °F
Wind: 5 mph from Southeast

Location: Kigali Airport

Current Time: Sep 3, 2015 at 1:20:51 PM

Latest Report: Sep 3, 2015 at 1:00 PM


Visibility: N/A

Pressure: N/A

Humidity: 51%

Dew point: 63 °F

Location of GitegaLocation

Historic Weather in Gitega — Graph

°F

Gitega temperature yesterday

Maximum temperature yesterday: 88 °F (at 2:30 PM)
Minimum temperature yesterday: 63 °F (at 5:00 AM)
Average temperature yesterday: 73 °F

Past Weeks' High & Low Weather Summary

 TemperatureHumidityPressure
High90 °F (Aug 20, 3:30 PM)100% (Aug 31, 11:00 PM)30.27 "Hg (Aug 31, 11:00 PM)
Low57 °F (Aug 24, 5:30 AM)23% (Aug 24, 5:00 PM)29.98 "Hg (Aug 20, 5:00 PM)
Average75 °F55%30.12 "Hg
* Reported Aug 19 12:00 Noon — Sep 3 12:00 Noon, Gitega, Weather by CustomWeather, © 2015

Note: Actual official high and low records may vary slightly from our data, if they occured in-between our weather recording intervals... More about our weather records

Advertising

Gitega weather history for previous 24 hours

 ConditionsComfort  
Time TempWeatherWind HumidityBarometerVisibility
12:00 PM
Thu, Sep 3
81 °FScattered clouds.5 mph54%N/AN/A
11:30 AM81 °FScattered clouds.3 mph54%N/AN/A
10:30 AM77 °FScattered clouds.3 mph65%30.18 "HgN/A
10:00 AM75 °FScattered clouds.3 mph74%30.18 "HgN/A
9:00 AM73 °FScattered clouds.No wind78%30.21 "HgN/A
8:30 AM73 °FPassing clouds.No wind83%30.18 "HgN/A
8:00 AM70 °FPassing clouds.No wind88%30.18 "HgN/A
7:30 AM66 °FPassing clouds.No wind100%30.18 "HgN/A
7:00 AM64 °FScattered clouds.No wind100%30.15 "HgN/A
6:30 AM64 °FScattered clouds.No wind100%30.15 "HgN/A
5:30 AM64 °FPassing clouds.No wind100%30.12 "HgN/A
4:30 AM66 °FPassing clouds.No wind100%30.12 "HgN/A
4:00 AM66 °FPassing clouds.No wind100%30.12 "HgN/A
3:30 AM66 °FPassing clouds.No wind100%30.12 "HgN/A
3:00 AM66 °FPassing clouds.No wind100%30.12 "HgN/A
2:30 AM66 °FPassing clouds.No wind100%30.12 "HgN/A
2:00 AM66 °FPassing clouds.No wind100%30.12 "HgN/A
1:30 AM66 °FPassing clouds.No wind100%30.15 "HgN/A
1:00 AM66 °FPassing clouds.No wind100%30.15 "HgN/A
12:30 AM68 °FPassing clouds.3 mph94%30.15 "HgN/A
12:00 AM68 °FPassing clouds.No wind94%30.18 "HgN/A
11:30 PM
Wed, Sep 2
68 °FPassing clouds.3 mph94%30.18 "HgN/A
11:00 PM68 °FPassing clouds.5 mph94%30.18 "HgN/A
10:30 PM68 °FPassing clouds.3 mph94%30.18 "HgN/A
10:00 PM68 °FPassing clouds.3 mph100%30.18 "HgN/A
9:30 PM68 °FPassing clouds.6 mph94%30.15 "Hg5 mi
9:00 PM68 °FPassing clouds.5 mph94%30.12 "Hg5 mi
8:30 PM66 °FPassing clouds.No wind100%30.12 "Hg5 mi
8:00 PM66 °FThunderstorms. Passing clouds.6 mph100%30.12 "Hg5 mi
7:30 PM66 °FThunderstorms. Passing clouds.10 mph100%30.12 "Hg4 mi
7:00 PM66 °FThunderstorms. Passing clouds.10 mph100%30.09 "Hg4 mi
6:30 PM66 °FThunderstorms. Passing clouds.12 mph100%30.09 "Hg2 mi
6:00 PM66 °FThunderstorms. Partly sunny.12 mph100%30.09 "Hg2 mi
5:30 PM77 °FThunderstorms. Partly sunny.17 mph74%30.07 "Hg5 mi
5:00 PM86 °FPartly sunny.5 mph38%30.04 "HgN/A
4:30 PM86 °FScattered clouds.7 mph38%30.01 "HgN/A
4:00 PM88 °FScattered clouds.7 mph35%30.04 "HgN/A
3:30 PM88 °FScattered clouds.7 mph35%30.04 "HgN/A
3:00 PM88 °FPartly sunny.7 mph35%30.04 "HgN/A
2:30 PM88 °FPartly sunny.9 mph35%30.04 "HgN/A
2:00 PM86 °FPartly sunny.9 mph40%30.07 "HgN/A
1:30 PM86 °FPartly sunny.7 mph40%30.09 "HgN/A
1:00 PM82 °FPartly sunny.7 mph48%30.12 "HgN/A
Weather by CustomWeather, © 2015

See weather overviewHow to use our weather pages